User: anonymous   Login
Location: Niverville
(49.6028°N, 97.0419°W)
Time: 23:30:58
(UTC-06:00)
Language:

Cosmos 2237 Rocket - Orbit

View from above orbital plane
View from above orbital plane
View from above satellite
View from above satellite

Ground track
Ground track

The orbit data is extracted from the following two-line orbital elements,

1 22566U 93016B   17056.86186369  .00000166  00000-0  11054-3 0  9993
2 22566  71.0073 300.6056 0012114 296.7684  63.2198 14.14940874235520
Epoch (UTC): 25 February 2017 20:41:05
Eccentricity: 0.0012114
inclination: 71.0073°
perigee height: 834 km
apogee height: 851 km
right ascension of ascending node: 300.6056°
argument of perigee: 296.7684°
revolutions per day: 14.14940874
mean anomaly at epoch: 63.2198°
orbit number at epoch: 23552

The dashed part of the orbit path shows where the satellite is in the earth's shadow,  

DLR